Wind_Speed
97 98 98 98 98 98 99 100 100 99 102 104 104 102 102 104 104 106 108 109 112 114 113 116 122 124 120 118 117 116 110 99 106 109 114 117 118 122 123 122 122 122 120
104 104 104 103 102 102 102 101 103 105 106 102 100 105 105 106 108 108 109 112 112 114 118 124 121 119 116 107 100 99 105 107 112 116 121 123 126 126 125 125 122 117 112
108 107 107 106 107 107 107 107 106 105 104 105 107 105 107 108 109 108 112 112 117 119 121 119 112 101 101 106 108 112 115 118 120 125 126 128 128 126 122 117 112 111 111
113 112 111 111 112 111 110 109 110 110 110 106 106 105 107 108 110 113 115 114 120 120 117 114 108 108 111 112 116 120 125 128 130 130 130 128 125 122 116 113 115 109 102
115 115 115 115 114 112 111 110 108 108 106 106 103 105 107 111 113 111 115 122 121 120 115 111 111 115 117 120 125 128 131 132 133 131 128 120 116 117 114 106 99 96 96
108 109 110 111 112 109 106 104 103 103 102 104 107 109 110 110 112 116 121 119 117 111 107 110 116 120 122 127 131 133 133 132 130 124 120 118 113 106 101 94 91 91 89
105 104 104 104 105 105 104 103 103 103 105 105 106 107 109 111 117 117 118 113 110 109 111 117 121 126 130 131 133 133 131 126 121 120 113 105 101 95 95 95 93 89 85
103 102 101 99 99 99 100 102 103 104 103 103 103 106 112 117 119 119 114 114 114 116 120 125 127 129 132 131 131 127 122 119 113 105 101 97 94 89 87 87 85 83 80
105 103 99 96 95 96 96 96 97 98 100 103 107 112 115 115 114 113 113 116 119 123 127 128 129 129 129 126 120 118 113 105 101 99 96 93 90 87 85 85 82 77 76
111 106 100 97 96 97 97 96 96 97 100 104 109 110 109 110 111 116 117 122 124 127 128 128 128 126 121 117 115 106 101 99 96 93 93 93 91 86 83 79 74 70 68
116 109 103 100 100 99 99 101 100 101 101 105 107 110 114 115 118 121 123 124 126 125 124 123 120 114 113 107 99 96 94 93 93 93 94 93 90 86 81 76 70 66 65
116 110 106 104 102 103 104 105 106 108 109 112 113 116 119 121 121 122 123 122 120 120 119 113 110 106 98 93 91 90 91 91 90 90 89 88 85 82 78 74 69 63 61
115 113 112 111 110 109 107 107 109 110 111 113 116 120 122 122 122 119 117 115 114 110 106 105 99 93 88 86 87 86 85 85 85 86 85 84 81 79 77 73 70 66 60
121 118 117 117 116 114 112 112 112 113 113 114 114 114 113 112 111 111 110 108 102 102 100 92 87 83 82 82 78 77 78 79 82 84 84 81 79 77 74 70 68 66 63
125 122 116 110 104 102 99 98 100 101 100 101 103 105 105 104 102 103 99 97 97 93 85 80 79 78 73 70 70 73 77 78 80 81 81 79 77 74 70 67 63 61 59
104 99 95 92 88 86 90 90 91 93 94 96 96 96 94 93 92 91 91 89 83 78 75 74 72 66 65 66 68 72 76 78 79 79 78 76 75 73 70 65 61 57 55
84 79 76 75 78 78 77 79 80 81 82 82 83 83 84 84 82 81 75 72 72 71 69 64 62 64 66 67 70 74 77 79 79 78 77 76 73 70 68 64 61 58 55
67 64 62 61 61 62 63 67 69 71 71 71 72 71 72 70 65 64 63 65 64 62 58 61 64 67 68 70 73 75 78 80 78 78 76 74 71 68 65 62 59 58 56
56 52 50 48 47 47 48 50 51 53 56 59 58 58 56 54 55 56 57 57 56 56 59 62 66 69 70 72 74 75 78 79 78 76 75 72 70 66 63 61 60 57 55
45 42 40 39 38 39 40 42 44 46 47 46 46 45 47 47 50 50 52 52 54 58 61 64 66 70 71 73 74 75 76 78 78 76 72 70 68 65 63 61 59 57 53
38 36 36 36 35 35 36 37 38 38 38 40 42 41 42 44 46 47 49 53 57 60 63 64 67 70 70 71 72 73 75 76 76 75 71 69 67 64 61 59 57 54 52
34 33 32 32 31 31 32 33 34 36 36 36 37 39 41 40 42 47 51 56 60 62 64 66 67 69 69 69 71 71 73 75 75 74 70 67 65 62 60 57 54 52 49
29 29 30 31 31 31 31 30 31 32 33 33 35 38 38 41 44 49 54 57 60 62 65 67 68 68 68 68 69 71 73 74 74 74 70 67 64 61 58 55 53 50 46
30 30 30 28 27 27 27 28 28 28 28 31 34 37 39 43 47 50 54 58 61 63 66 67 68 68 67 68 69 71 73 74 73 73 71 67 64 61 58 55 52 48 45
25 25 24 25 25 26 24 23 23 26 29 33 37 41 44 47 49 53 56 60 62 64 66 66 68 69 68 69 71 72 74 75 73 72 70 67 63 60 57 54 52 47 44
24 24 24 23 21 19 19 21 25 29 32 35 38 42 47 50 53 54 58 62 64 65 66 67 68 69 69 70 72 73 74 74 74 72 69 67 63 59 56 53 51 48 43
Wind_Direction
281 282 283 284 285 286 286 287 289 288 288 290 291 293 293 295 294 295 293 295 298 299 299 299 300 303 303 302 301 302 300 300 301 300 301 301 300 299 298 298 297 296 295
281 281 281 282 282 283 284 285 285 286 289 291 290 291 293 293 293 294 295 297 298 298 299 301 302 302 300 301 303 303 302 301 300 300 300 300 298 298 298 297 296 294 292
280 281 281 282 283 283 284 285 286 288 288 289 291 291 291 291 291 294 296 296 297 300 301 301 302 303 302 304 304 303 302 300 300 299 298 298 298 298 296 295 295 294 293
279 279 280 281 282 282 283 284 284 286 288 289 290 289 289 291 292 294 295 297 299 300 301 302 301 301 301 302 301 302 301 301 301 300 300 299 298 298 298 298 298 297 295
281 280 279 280 282 282 282 282 282 284 286 287 286 287 289 290 292 293 294 297 298 298 298 298 298 299 301 302 301 302 301 301 301 301 300 300 300 300 299 298 295 293 293
281 281 281 280 280 280 280 281 281 282 284 285 287 288 289 290 291 292 296 299 299 298 298 297 299 301 301 301 302 301 301 302 302 302 303 303 301 299 298 297 296 295 295
281 281 281 282 282 282 281 281 281 283 284 285 286 287 287 288 291 295 299 299 300 299 299 300 300 300 301 302 301 302 303 302 303 302 301 302 302 301 300 298 297 295 292
281 282 283 284 284 283 282 281 281 282 283 285 285 287 289 292 294 296 296 297 299 300 300 300 300 301 301 302 302 302 303 302 302 303 303 303 302 301 300 298 297 296 294
279 280 281 282 283 284 284 284 285 286 287 287 287 289 291 293 294 294 295 297 298 299 300 300 301 301 301 302 303 303 304 304 304 305 304 304 304 304 302 301 299 297 294
281 281 282 283 285 286 288 290 291 291 291 290 289 291 292 293 293 294 296 297 298 299 300 300 301 302 303 304 305 305 305 306 306 306 306 306 306 306 304 302 300 297 293
281 283 285 287 289 289 290 290 290 290 290 289 289 290 291 292 293 294 295 297 298 300 300 301 302 303 304 305 306 307 307 308 308 307 307 308 308 307 306 305 302 299 295
285 287 289 288 288 288 288 288 288 288 288 288 288 289 290 291 292 293 296 298 298 298 299 302 303 305 305 307 308 308 308 307 308 308 309 308 309 309 308 307 304 300 296
290 290 291 290 288 287 286 285 286 286 286 286 288 288 289 290 292 294 295 296 297 299 301 303 304 306 308 308 307 307 308 309 310 310 310 310 311 310 309 308 306 303 300
291 291 290 290 290 289 287 286 285 284 285 286 287 286 288 289 291 292 294 296 299 302 303 305 306 307 306 307 308 310 312 313 313 313 313 313 313 312 309 308 306 304 303
290 289 288 286 284 283 283 282 281 281 282 282 283 284 286 289 290 291 295 298 300 302 304 305 305 306 308 311 313 315 316 315 315 315 314 314 313 312 310 308 306 304 302
286 285 283 281 278 279 279 278 277 278 279 280 281 283 285 287 290 294 296 299 300 301 303 304 305 308 313 316 318 318 317 317 317 317 316 316 316 314 312 311 309 307 306
285 284 282 280 276 274 273 274 275 276 278 281 282 285 285 289 294 296 297 299 300 303 304 305 310 316 319 321 320 320 320 318 319 319 319 318 317 316 314 314 313 311 309
286 285 283 281 278 276 275 275 275 277 280 281 284 286 290 293 294 296 297 298 300 303 306 312 316 318 320 323 323 322 321 320 321 322 321 320 319 317 316 315 314 312 311
287 287 286 284 282 281 280 280 281 281 283 284 288 290 291 294 295 297 297 300 305 310 314 317 319 320 322 323 322 322 321 321 322 323 323 322 321 320 318 318 316 314 312
290 291 291 291 289 286 283 282 282 284 288 291 292 292 293 295 297 298 303 308 313 315 317 319 321 322 323 322 321 321 322 322 323 324 325 324 323 322 321 319 318 316 314
294 294 293 293 291 289 288 288 291 293 293 292 291 293 296 297 300 307 310 314 316 317 319 320 322 322 323 322 321 322 323 323 324 326 326 326 325 322 321 320 319 318 315
294 294 294 294 293 292 293 294 293 291 290 289 294 297 298 302 307 311 314 316 318 319 320 322 322 322 323 322 322 323 324 325 326 327 327 327 326 324 323 321 320 320 318
295 294 293 291 291 292 293 291 289 289 292 297 299 299 303 309 312 315 316 317 319 322 321 321 321 322 323 323 324 325 326 326 327 328 329 329 327 326 325 323 322 321 319
293 292 292 289 288 288 288 289 292 296 301 300 301 306 311 315 317 318 319 319 320 321 321 322 323 323 324 323 325 326 327 328 328 329 329 329 329 327 327 325 325 325 322
293 291 290 289 288 290 294 295 304 305 305 309 312 316 317 319 320 321 321 321 322 323 323 324 324 323 324 324 326 328 329 329 329 330 329 329 330 328 328 327 325 326 323
296 295 294 294 296 301 308 316 314 314 315 318 318 319 321 323 325 326 323 323 324 325 325 326 325 324 325 326 327 328 330 329 330 330 329 329 331 330 329 328 326 325 324
Height
10598 10596 10594 10591 10588 10584 10580 10577 10572 10567 10562 10556 10549 10541 10535 10529 10523 10516 10508 10499 10490 10481 10471 10460 10448 10437 10424 10413 10402 10392 10381 10371 10361 10348 10338 10326 10315 10303 10291 10282 10271 10259 10247
10576 10574 10572 10569 10566 10562 10559 10555 10551 10545 10539 10532 10525 10519 10513 10506 10499 10491 10483 10473 10463 10453 10443 10433 10420 10409 10394 10381 10372 10364 10356 10346 10335 10324 10308 10297 10282 10270 10259 10246 10235 10224 10215
10551 10549 10547 10544 10540 10538 10535 10531 10526 10520 10514 10508 10502 10494 10488 10481 10474 10466 10457 10447 10437 10427 10415 10404 10393 10380 10368 10357 10346 10335 10325 10314 10305 10293 10279 10265 10249 10236 10223 10211 10201 10187 10177
10525 10522 10520 10518 10515 10512 10509 10505 10501 10496 10490 10484 10478 10472 10465 10457 10450 10441 10432 10421 10411 10399 10388 10377 10366 10355 10343 10332 10320 10308 10293 10280 10267 10255 10241 10226 10211 10196 10184 10175 10160 10149 10141
10496 10494 10492 10490 10488 10486 10484 10480 10476 10472 10467 10461 10456 10449 10443 10435 10427 10417 10406 10396 10385 10374 10363 10352 10339 10327 10315 10301 10289 10276 10262 10246 10230 10216 10202 10188 10175 10160 10149 10138 10130 10123 10107
10470 10468 10467 10466 10463 10460 10458 10455 10452 10448 10444 10439 10433 10426 10418 10408 10398 10390 10381 10368 10357 10347 10335 10322 10310 10297 10285 10271 10257 10242 10227 10211 10194 10178 10165 10152 10141 10128 10115 10105 10097 10089 10082
10446 10444 10443 10441 10437 10435 10433 10431 10428 10425 10420 10415 10409 10400 10392 10382 10373 10363 10353 10341 10331 10320 10307 10295 10281 10267 10253 10241 10224 10209 10192 10177 10162 10148 10135 10122 10110 10098 10086 10075 10065 10058 10053
10420 10420 10420 10418 10416 10413 10410 10408 10405 10402 10397 10392 10383 10374 10366 10355 10346 10335 10326 10315 10304 10293 10280 10266 10252 10238 10221 10208 10191 10177 10162 10147 10132 10119 10107 10094 10084 10072 10060 10049 10040 10030 10019
10395 10396 10399 10398 10395 10392 10388 10384 10381 10377 10372 10365 10357 10348 10338 10328 10318 10307 10298 10289 10277 10267 10253 10237 10223 10208 10190 10178 10163 10146 10131 10116 10105 10092 10079 10066 10055 10044 10034 10023 10012 10005 9995
10366 10370 10375 10376 10373 10369 10366 10361 10357 10352 10346 10338 10330 10321 10311 10300 10292 10281 10271 10261 10250 10237 10225 10209 10193 10178 10161 10145 10131 10116 10103 10090 10077 10065 10052 10039 10027 10016 10007 9997 9988 9978 9970
10337 10344 10351 10351 10349 10346 10341 10336 10331 10325 10319 10308 10300 10293 10283 10273 10264 10254 10245 10233 10222 10209 10194 10181 10166 10152 10136 10121 10106 10092 10079 10066 10054 10039 10025 10011 9998 9987 9978 9970 9963 9954 9943
10311 10318 10321 10322 10320 10317 10313 10308 10301 10296 10288 10279 10272 10263 10253 10245 10235 10226 10218 10206 10194 10182 10169 10155 10141 10127 10113 10099 10086 10072 10059 10045 10031 10017 10003 9988 9975 9963 9953 9943 9935 9930 9923
10284 10289 10291 10290 10286 10285 10282 10277 10271 10265 10256 10249 10242 10233 10225 10217 10207 10200 10190 10180 10169 10158 10145 10131 10118 10104 10092 10080 10067 10053 10039 10024 10011 9996 9982 9968 9955 9942 9930 9920 9911 9902 9899
10255 10254 10253 10251 10248 10247 10243 10239 10235 10230 10224 10218 10212 10203 10196 10188 10181 10173 10164 10155 10144 10133 10121 10109 10097 10086 10075 10063 10050 10035 10021 10006 9991 9975 9960 9947 9935 9923 9913 9902 9890 9880 9872
10221 10217 10215 10212 10211 10208 10206 10203 10199 10196 10193 10188 10182 10175 10169 10165 10157 10149 10142 10133 10121 10111 10100 10090 10081 10070 10058 10046 10032 10018 10003 9989 9975 9960 9944 9931 9917 9904 9894 9884 9874 9865 9857
10183 10180 10178 10176 10174 10173 10172 10170 10169 10167 10165 10159 10155 10151 10146 10140 10134 10129 10121 10112 10102 10093 10085 10075 10065 10053 10042 10030 10017 10003 9987 9973 9959 9944 9929 9914 9900 9885 9873 9864 9856 9848 9841
10151 10148 10146 10143 10144 10143 10142 10143 10141 10139 10139 10136 10133 10129 10124 10120 10115 10108 10101 10092 10084 10076 10068 10058 10048 10036 10025 10013 10000 9986 9970 9955 9942 9927 9911 9895 9881 9870 9856 9846 9838 9830 9822
10127 10124 10122 10121 10119 10118 10119 10119 10119 10118 10116 10114 10112 10109 10106 10102 10096 10091 10085 10077 10070 10062 10053 10043 10032 10021 10009 9996 9982 9969 9953 9938 9926 9911 9896 9880 9866 9853 9841 9832 9824 9813 9805
10108 10106 10104 10102 10101 10100 10100 10100 10100 10099 10098 10097 10096 10094 10090 10085 10080 10076 10070 10064 10056 10047 10037 10028 10017 10004 9991 9980 9967 9953 9938 9923 9910 9896 9881 9866 9852 9838 9827 9818 9807 9800 9791
10094 10091 10090 10088 10087 10087 10087 10087 10087 10086 10086 10085 10082 10079 10076 10072 10067 10062 10056 10049 10042 10033 10024 10015 10002 9989 9977 9965 9952 9939 9925 9909 9895 9882 9868 9852 9838 9825 9814 9803 9794 9784 9777
10083 10082 10080 10080 10079 10078 10078 10077 10077 10076 10075 10073 10071 10068 10065 10061 10055 10049 10042 10036 10028 10020 10010 10000 9989 9976 9965 9951 9938 9925 9911 9896 9880 9867 9854 9840 9825 9813 9803 9791 9781 9773 9764
10076 10075 10074 10073 10072 10071 10070 10070 10069 10067 10065 10063 10061 10057 10054 10050 10044 10039 10031 10023 10014 10006 9995 9985 9975 9964 9952 9938 9924 9911 9896 9881 9866 9853 9841 9828 9814 9802 9792 9781 9771 9763 9755
10071 10069 10068 10067 10066 10065 10064 10062 10060 10059 10056 10054 10051 10048 10043 10038 10033 10026 10018 10010 10001 9991 9981 9971 9960 9950 9938 9925 9911 9898 9883 9868 9852 9838 9826 9815 9803 9791 9780 9770 9761 9753 9746
10065 10064 10062 10061 10059 10058 10056 10054 10052 10050 10048 10045 10042 10037 10031 10026 10020 10013 10005 9997 9989 9980 9969 9958 9946 9934 9923 9911 9898 9884 9869 9854 9839 9825 9812 9801 9790 9778 9768 9758 9750 9743 9735
10058 10056 10055 10054 10052 10050 10048 10046 10044 10043 10040 10036 10031 10026 10021 10015 10009 10002 9993 9984 9976 9967 9956 9944 9931 9919 9908 9897 9884 9870 9855 9840 9826 9812 9800 9789 9779 9768 9758 9748 9739 9733 9725
10051 10049 10048 10046 10044 10042 10041 10039 10037 10035 10032 10027 10022 10017 10011 10005 9998 9990 9980 9971 9962 9953 9942 9931 9918 9906 9894 9882 9869 9856 9842 9828 9814 9801 9788 9778 9768 9758 9748 9739 9730 9722 9716